Regional Weather Roundup
Issued by NWS

Home | Current Version | Previous Version | Text Only | Print | Product List | Glossary Off
Versions: 1 2 3 4 5 6 7 8 9 10 11 12 13 14 15 16 17 18 19 20 21 22 23 24 25 26 27 28 29 30 31 32 33 34 35 36 37 38 39 40 41 42 43 44 45 46 47 48 49 50

000
ASUS43 KFSD 040510
RWRSD

WEATHER ROUNDUP FOR SOUTH DAKOTA
NATIONAL WEATHER SERVICE SIOUX FALLS SD
1100 PM CST TUE MAR 03 2015

NOTE: "FAIR" INDICATES FEW OR NO CLOUDS BELOW 12,000 FEET WITH NO
SIGNIFICANT WEATHER AND/OR OBSTRUCTIONS TO VISIBILITY.


SDZ001>005-009-010-012>017-040600-
NORTHWEST AND NORTH CENTRAL SOUTH DAKOTA

CITY           SKY/WX    TMP DP  RH WIND       PRES   REMARKS
BUFFALO          N/A      3  -5  69 W12       29.92S WCI -13
FAITH            N/A      5  -6  60 W9        30.04R WCI  -9
MOBRIDGE       CLEAR      3  -3  76 NW3       30.05R
$$

SDZ012>016-024>037-041>051-057-063-072>074-040600-
SOUTHWEST AND SOUTH CENTRAL SOUTH DAKOTA

CITY           SKY/WX    TMP DP  RH WIND       PRES   REMARKS
RAPID CTY ARPT CLEAR      1  -6  72 W3        30.05R
PIERRE         CLEAR      5  -3  69 W8        30.10R WCI  -8
CUSTER         CLEAR     -1  -9  68 W9        29.87R WCI -16
ELLSWORTH AFB  CLEAR      4  -6  63 W5        30.03R WCI  -5
PHILIP         CLEAR      8  -3  61 W9        30.10R WCI  -5
PINE RIDGE     CLOUDY    10   5  80 CALM      30.07R
SPEARFISH      FAIR       7  -4  61 W13       29.99R WCI  -9
WINNER         FAIR      12   1  61 W9        30.10R WCI   0
$$

SDZ004>011-016>023-039-040-040600-
NORTHEAST SOUTH DAKOTA

CITY           SKY/WX    TMP DP  RH WIND       PRES   REMARKS
ABERDEEN       CLEAR      2  -7  66 NW10      30.12R WCI -14
WATERTOWN      CLEAR     -1  -7  75 NW7       30.04S WCI -14
SISSETON         N/A      3  -6  66 NW14      30.07R WCI -15
$$

SDZ017-020-022-023-036>040-048>070-040600-
SOUTHEAST SOUTH DAKOTA

CITY           SKY/WX    TMP DP  RH WIND       PRES   REMARKS
SIOUX FALLS    MOCLDY     6  -1  73 NW7       30.08S WCI  -6
HURON          CLEAR     -4  -9  79 NW3       30.12R
CHAMBERLAIN    PTCLDY     7  -3  63 NW6       30.11R WCI  -3
MITCHELL       PTCLDY     9   2  73 NW7       30.13R WCI  -2
YANKTON        MOCLDY    12   7  79 CALM      30.14R
$$

ABBREVIATIONS USED IN REMARKS
   TC - TEMPERATURE IN CELSIUS
  WCI - WIND CHILL INDEX
   HX - HEAT INDEX
  VSB - VISIBILITY




USA.gov is the U.S. government's official web portal to all federal, state and local government web resources and services.